User: anonymous   Login
Location: Unspecified
(0.0000°N, 0.0000°E)
Time: 04:23:00
(UTC+00:00)
Language:

RS-15 - Orbit

View from above orbital plane
View from above orbital plane
View from above satellite
View from above satellite

Ground track
Ground track

The orbit data is extracted from the following two-line orbital elements,

1 23439U 94085A   21342.53573610 -.00000037  00000-0  15882-3 0  9997
2 23439  64.8127  94.4044 0165297 305.0981  53.4542 11.27570497109963
Epoch (UTC): 08 December 2021 12:51:27
Eccentricity: 0.0165297
inclination: 64.8127°
perigee height: 1883 km
apogee height: 2161 km
right ascension of ascending node: 94.4044°
argument of perigee: 305.0981°
revolutions per day: 11.27570497
mean anomaly at epoch: 53.4542°
orbit number at epoch: 10996

The dashed part of the orbit path shows where the satellite is in the earth's shadow,  

DLR